Tracking 18945 objects as of 19-Jan-2018
HD Live streaming from Space Station
objects crossing your sky now

CZ-3B DEB

Track CZ-3B DEB now!


NORAD ID: 42458
Int'l Code: 2010-042Z
Perigee: 875.3 km
Apogee: 43,215.5 km
Inclination: 30.4 °
Period: 794.5 minutes
Semi major axis: 28416 km
RCS: Unknown
Launch date: September 4, 2010
Source: People's Republic of China (PRC)
Launch site: Xichang Space Center, China (XSC)

Note: This is SATELLITE DEBRIS
aabbcc
Your satellite tracking list
Your tracking list is empty




NASA's NSSDC Master Catalog

Two Line Element Set (TLE):
1 42458U 10042Z   18007.49916446  .00000133  00000-0  32942-1 0  9997
2 42458  30.4229 283.7700 7449968 132.9913 319.8803  1.81238095 20569
Source of the keplerian elements: AFSPC